Accueil
METAR-TAF:

METAR-TAF

Aéroports :

Meiringen, Suisse

latitude: 46-44-25N, longitude: 8-06-36E, altitude: 577 m

Observation

Le bulletin a été fait il y a 1 heure et 3 minutes, à 08:50 UTC
Vent 5 kt de ouest, variant entre sud-ouest et nord-ouest
Température 22°C
Humidité 73%
Pression 1021 hPa
Visibilité 10 km ou plus
Quelques nuages à une hauteur de 4300 ft

METAR: LSMM 170850Z 27005KT 230V320 9999 R10/1400N R28/P2000N FEW043 22/17 Q1021 RMK BLU+

Heure: 11:53 (09:53 UTC)


TAF: absent

Observations et prévisions météorologiques de plus de 4000 aéroports (messages METAR et TAF).

Les stations disponibles sont représentées par des disques jaunes et rouges sur la carte.

Passer la souris dessus pour voir le nom de la station.

Cliquer dessus pour voir les observations et prévisions météorologiques.

Pour changer de carte: cliquez sur les boutons verts avec une croix noire pour zoomer, sur le bouton vert avec un tiret pour effectuer un zoom arrière, ou sur les flèches vertes pour les cartes adjacentes.


METAR-TAF: